Regional Weather Roundup
Issued by NWS Cleveland, OH

Home | Current Version | Previous Version | Graphics & Text | Print | Product List | Glossary On
Versions: 1 2 3 4 5 6 7 8 9 10 11 12 13 14 15 16 17 18 19 20 21 22 23 24 25 26 27 28 29 30 31 32 33 34 35 36 37 38 39 40 41 42 43 44 45 46 47 48 49 50
000
ASUS41 KCLE 202302
RWRCLE
OHIO REGIONAL WEATHER ROUNDUP
NATIONAL WEATHER SERVICE CLEVELAND, OH
600 PM EST MON FEB 20 2017

NOTE: "FAIR" INDICATES FEW OR NO CLOUDS BELOW 12,000 FEET WITH NO
SIGNIFICANT WEATHER AND/OR OBSTRUCTIONS TO VISIBILITY.

OHZ001>008-015>018-024>027-034-035-043-044-210000-
   NORTHWEST OHIO

CITY           SKY/WX    TMP DP  RH WIND       PRES   REMARKS
DEFIANCE       NOT AVBL
FINDLAY        MOCLDY    57  38  48 NE12      30.14S
TOLEDO EXPRESS CLOUDY    44  31  60 E13       30.18F
TOLEDO EXEC    CLOUDY    42  33  70 E12G20    30.21S
LIMA           CLOUDY    58  42  55 E9        30.13F
$$

OHZ009>014-019>023-028>033-038-089-210000-
   NORTHEAST OHIO

CITY           SKY/WX    TMP DP  RH WIND       PRES   REMARKS
CLE-HOPKINS    CLOUDY    44  32  62 N6        30.24S
CLE-LAKEFRONT  PTCLDY    38  33  82 NE12      30.21S
CUY CO. ARPT   MOCLDY    48  36  61 E8        30.22S
LORAIN-ELYRIA  CLOUDY    43  31  62 NE7       30.20F
ASHTABULA      CLOUDY    43  30  60 NE6       30.24F
AKRON-CANTON   CLOUDY    56  32  40 E5        30.20F
WOOSTER        CLOUDY    54  38  54 SE6       30.19F
MANSFIELD      CLOUDY    53  36  52 E8        30.17F
YOUNGSTOWN     CLOUDY    52  30  43 E6        30.22F
$$

OHZ042-051>053-060>062-070>072-077>081-210000-
  SOUTHWEST OHIO

CITY           SKY/WX    TMP DP  RH WIND       PRES   REMARKS
CINC-COVINGTON CLOUDY    62  48  60 E8        30.11S
CINC-LUNKEN    CLOUDY    63  47  55 SE6       30.13R
HAMILTON       CLOUDY    62  45  53 SE3       30.13R
DAYTON         CLOUDY    59  39  47 SE8       30.14R
WRIGHT-PAT AFB CLOUDY    61  39  43 E6        30.13R
DAYTON GENERAL CLOUDY    60  38  43 SE6       30.12R
WILMINGTON     PTCLDY    58  39  49 SE6       30.14R
$$

OHZ036-037-039>041-045>050-054>059-063>069-073>076-082>088-210000-
  CENTRAL AND SOUTHEAST OHIO

CITY           SKY/WX    TMP DP  RH WIND       PRES   REMARKS
COLUMBUS       CLOUDY    59  39  47 E8        30.15F
OSU AIRPORT    CLOUDY    56  39  53 E6        30.15S
BOLTON FIELD   CLEAR     59  43  55 E5        30.16F
RICKENBACK AFB PTCLDY    57  43  59 E7        30.15S
NEWARK         CLOUDY    56  41  57 NE6       30.16F
MARION         CLOUDY    57  37  47 SE6       30.17S
LANCASTER      PTCLDY    59  44  57 E7        30.15F
ZANESVILLE     CLOUDY    58  42  55 NE3       30.18F
NEW PHILLY     NOT AVBL
$$




USA.gov is the U.S. government's official web portal to all federal, state and local government web resources and services.